星链-35755(STARLINK-35755)

导读

STARLINK-35755是美国太空探索技术公司(SpaceX)于2025年12月17日发射的星链(Starlink)低轨互联网卫星,运行于近地轨道,是SpaceX全球卫星互联网星座的组成单元。星链项目旨在为全球,尤其偏远地区提供高速低延迟宽带服务,缩小数字鸿沟,同时支持军事、航空等特殊场景通信需求,推动全球互联网普及与空天地一体化网络建设。

基本信息
目录编号:
67163
目录名称:
STARLINK-35755
国际标识:
2025-303A
轨道中心:
EARTH
卫星名称:
星链-35755
卫星全名:
星链-35755(STARLINK-35755)
卫星状态:
在轨 (已飞行268 天)
发射日期:
2025-12-17 UTC
国别 :
美国 (US)
星等 :
--
该卫星已列入 空间交会检测服务 Space Conjunction Data Service (SCDS) ,当前飞行风险评估等级: 高风险
轨道信息
数据来源 国际轨道数据
星历时间: 2026-09-11T13:53:12+0800
14小时前
查看轨道信息
半长轴: 6861.101km
偏心率: 0.0002835
轨道倾角: 43.004°
近地点辐角 278.646°
升交点赤经 342.787°
平近点角 81.407°
近地点: 481.018km
远地点: 484.91km
周期: 94.265分钟
每日圈数: 15.276086
详细信息
固有亮度:
5
最大亮度:
2.5
卫星平台:
Starlink V1.0
覆盖范围:
全球
运营商:
太空探索技术公司
运营商所在国:
美国
制造商(研发单位):
太空探索技术公司
制造商所在国:
美国
使用方式:
暂无
卫星简介
Starlink 计划是 SpaceX 推出的全球卫星互联网项目,通过发射低轨道卫星,为全球尤其是偏远地区提供高速、低延迟的互联网服务。自 2019 年起,Starlink 已部署数千颗卫星,旨在缩小全球数字鸿沟,推动互联网普及。该项目还为军事、航空等行业提供通信支持,带来广泛经济效益。
2D轨道图
3D轨道图
轨道高度分析图
轨道倾角分析图
轨道综合分析图
查看轨道综合分析图
交会数据列表
事件ID 空间交会对象 最接近时刻(TCA) 交会距离 交会风险概率(CRP) 交会风险指数(CRI) 操作
CDM_260914-045805-559606-716321
2026-09-14T
04:58:52+0000
1.250 km
极远距离
5.700002E-6 低风险 0.5
CDM_260914-024905-708906-716321
2026-09-14T
02:49:47+0000
2.654 km
极远距离
1.257565E-6 低风险 0.37
与全量物体交会距离演化趋势
与全量物体交会风险概率演化趋势